owner,sensor,date,latitude,longitude,vertical_datum,wind_speed,wind_to_direction,wind_speed_of_gust,qcFlag 
ENP,ioos.station.NOAA.NDBC:WRBF1:1,2017-05-01T00:00:00Z,25.0720,-80.7350,1.0,6.2,80.0,-9999.0,'1111122,1111122,1111122' 
ENP,ioos.station.NOAA.NDBC:WRBF1:1,2017-05-01T06:00:00Z,25.0720,-80.7350,1.0,5.1,90.0,-9999.0,'1111122,1111122,1111122' 
ENP,ioos.station.NOAA.NDBC:WRBF1:1,2017-05-01T07:00:00Z,25.0720,-80.7350,1.0,4.6,90.0,-9999.0,'1111122,1111122,1111122' 
ENP,ioos.station.NOAA.NDBC:WRBF1:1,2017-05-01T08:00:00Z,25.0720,-80.7350,1.0,4.1,90.0,-9999.0,'1111122,1111122,1111122' 
ENP,ioos.station.NOAA.NDBC:WRBF1:1,2017-05-01T10:00:00Z,25.0720,-80.7350,1.0,3.1,100.0,-9999.0,'1111122,1111122,1111122' 
ENP,ioos.station.NOAA.NDBC:WRBF1:1,2017-05-01T11:00:00Z,25.0720,-80.7350,1.0,3.1,100.0,-9999.0,'1111122,1111122,1111122' 
ENP,ioos.station.NOAA.NDBC:WRBF1:1,2017-05-01T12:00:00Z,25.0720,-80.7350,1.0,2.6,100.0,-9999.0,'1111122,1111122,1111122' 
ENP,ioos.station.NOAA.NDBC:WRBF1:1,2017-05-01T13:00:00Z,25.0720,-80.7350,1.0,2.1,90.0,-9999.0,'1111122,1111122,1111122' 
ENP,ioos.station.NOAA.NDBC:WRBF1:1,2017-05-01T14:00:00Z,25.0720,-80.7350,1.0,1.0,110.0,-9999.0,'1111122,1111122,1111122' 
ENP,ioos.station.NOAA.NDBC:WRBF1:1,2017-05-01T15:00:00Z,25.0720,-80.7350,1.0,1.0,100.0,-9999.0,'1111122,1111122,1111122' 
ENP,ioos.station.NOAA.NDBC:WRBF1:1,2017-05-01T16:00:00Z,25.0720,-80.7350,1.0,2.6,100.0,-9999.0,'1111122,1111122,1111122' 
ENP,ioos.station.NOAA.NDBC:WRBF1:1,2017-05-01T17:00:00Z,25.0720,-80.7350,1.0,1.5,90.0,-9999.0,'1111122,1111122,1111122' 
ENP,ioos.station.NOAA.NDBC:WRBF1:1,2017-05-01T18:00:00Z,25.0720,-80.7350,1.0,2.1,100.0,-9999.0,'1111122,1111122,1111122' 
ENP,ioos.station.NOAA.NDBC:WRBF1:1,2017-05-01T19:00:00Z,25.0720,-80.7350,1.0,1.5,100.0,-9999.0,'1111122,1111122,1111122' 
ENP,ioos.station.NOAA.NDBC:WRBF1:1,2017-05-01T21:00:00Z,25.0720,-80.7350,1.0,1.0,80.0,-9999.0,'1111122,1111122,1111122' 
ENP,ioos.station.NOAA.NDBC:WRBF1:1,2017-05-01T22:00:00Z,25.0720,-80.7350,1.0,1.5,90.0,-9999.0,'1111122,1111122,1111122' 
ENP,ioos.station.NOAA.NDBC:WRBF1:1,2017-05-01T23:00:00Z,25.0720,-80.7350,1.0,3.6,90.0,-9999.0,'1111122,1111122,1111122' 
ENP,ioos.station.NOAA.NDBC:WRBF1:1,2017-05-02T00:00:00Z,25.0720,-80.7350,1.0,3.6,90.0,-9999.0,'1111122,1111122,1111122' 
ENP,ioos.station.NOAA.NDBC:WRBF1:1,2017-05-02T06:00:00Z,25.0720,-80.7350,1.0,3.6,110.0,-9999.0,'1111122,1111122,1111122' 
ENP,ioos.station.NOAA.NDBC:WRBF1:1,2017-05-02T07:00:00Z,25.0720,-80.7350,1.0,3.1,120.0,-9999.0,'1111122,1111122,1111122' 
ENP,ioos.station.NOAA.NDBC:WRBF1:1,2017-05-02T08:00:00Z,25.0720,-80.7350,1.0,2.6,120.0,-9999.0,'1111122,1111122,1111122' 
ENP,ioos.station.NOAA.NDBC:WRBF1:1,2017-05-02T10:00:00Z,25.0720,-80.7350,1.0,1.5,140.0,-9999.0,'1111122,1111122,1111122' 
ENP,ioos.station.NOAA.NDBC:WRBF1:1,2017-05-02T11:00:00Z,25.0720,-80.7350,1.0,1.5,140.0,-9999.0,'1111122,1111122,1111122' 
ENP,ioos.station.NOAA.NDBC:WRBF1:1,2017-05-02T12:00:00Z,25.0720,-80.7350,1.0,1.0,150.0,-9999.0,'1111122,1111122,1111122' 
ENP,ioos.station.NOAA.NDBC:WRBF1:1,2017-05-02T13:00:00Z,25.0720,-80.7350,1.0,0.5,120.0,-9999.0,'1111122,1111122,1111122' 
ENP,ioos.station.NOAA.NDBC:WRBF1:1,2017-05-02T14:00:00Z,25.0720,-80.7350,1.0,1.0,140.0,-9999.0,'1111122,1111122,1111122' 
ENP,ioos.station.NOAA.NDBC:WRBF1:1,2017-05-02T15:00:00Z,25.0720,-80.7350,1.0,1.5,120.0,-9999.0,'1111122,1111122,1111122' 
ENP,ioos.station.NOAA.NDBC:WRBF1:1,2017-05-02T16:00:00Z,25.0720,-80.7350,1.0,1.0,130.0,-9999.0,'1111122,1111122,1111122' 
ENP,ioos.station.NOAA.NDBC:WRBF1:1,2017-05-02T19:00:00Z,25.0720,-80.7350,1.0,0.5,130.0,-9999.0,'1111122,1111122,1111122' 
ENP,ioos.station.NOAA.NDBC:WRBF1:1,2017-05-02T20:00:00Z,25.0720,-80.7350,1.0,1.0,120.0,-9999.0,'1111122,1111122,1111122' 
ENP,ioos.station.NOAA.NDBC:WRBF1:1,2017-05-02T21:00:00Z,25.0720,-80.7350,1.0,1.0,80.0,-9999.0,'1111122,1111122,1111122' 
ENP,ioos.station.NOAA.NDBC:WRBF1:1,2017-05-02T22:00:00Z,25.0720,-80.7350,1.0,1.0,110.0,-9999.0,'1111122,1111122,1111122' 
ENP,ioos.station.NOAA.NDBC:WRBF1:1,2017-05-02T23:00:00Z,25.0720,-80.7350,1.0,0.5,100.0,-9999.0,'1111122,1111122,1111122' 
ENP,ioos.station.NOAA.NDBC:WRBF1:1,2017-05-03T00:00:00Z,25.0720,-80.7350,1.0,1.5,100.0,-9999.0,'1111122,1111122,1111122' 
ENP,ioos.station.NOAA.NDBC:WRBF1:1,2017-05-03T03:00:00Z,25.0720,-80.7350,1.0,10.3,10.0,-9999.0,'1111122,1111122,1111122' 
ENP,ioos.station.NOAA.NDBC:WRBF1:1,2017-05-03T06:00:00Z,25.0720,-80.7350,1.0,1.5,110.0,-9999.0,'1111122,1111122,1111122' 
ENP,ioos.station.NOAA.NDBC:WRBF1:1,2017-05-03T07:00:00Z,25.0720,-80.7350,1.0,1.5,110.0,-9999.0,'1111122,1111122,1111122' 
ENP,ioos.station.NOAA.NDBC:WRBF1:1,2017-05-03T08:00:00Z,25.0720,-80.7350,1.0,1.0,110.0,-9999.0,'1111122,1111122,1111122' 
ENP,ioos.station.NOAA.NDBC:WRBF1:1,2017-05-03T10:00:00Z,25.0720,-80.7350,1.0,3.1,10.0,-9999.0,'1111122,1111122,1111122' 
ENP,ioos.station.NOAA.NDBC:WRBF1:1,2017-05-03T11:00:00Z,25.0720,-80.7350,1.0,2.1,20.0,-9999.0,'1111122,1111122,1111122' 
ENP,ioos.station.NOAA.NDBC:WRBF1:1,2017-05-03T12:00:00Z,25.0720,-80.7350,1.0,3.1,360.0,-9999.0,'1111122,1111122,1111122' 
ENP,ioos.station.NOAA.NDBC:WRBF1:1,2017-05-03T13:00:00Z,25.0720,-80.7350,1.0,1.5,360.0,-9999.0,'1111122,1111122,1111122' 
ENP,ioos.station.NOAA.NDBC:WRBF1:1,2017-05-03T14:00:00Z,25.0720,-80.7350,1.0,1.0,360.0,-9999.0,'1111122,1111122,1111122' 
ENP,ioos.station.NOAA.NDBC:WRBF1:1,2017-05-03T15:00:00Z,25.0720,-80.7350,1.0,2.1,20.0,-9999.0,'1111122,1111122,1111122' 
ENP,ioos.station.NOAA.NDBC:WRBF1:1,2017-05-03T16:00:00Z,25.0720,-80.7350,1.0,0.5,360.0,-9999.0,'1111122,1111122,1111122' 
ENP,ioos.station.NOAA.NDBC:WRBF1:1,2017-05-03T18:00:00Z,25.0720,-80.7350,1.0,1.5,50.0,-9999.0,'1111122,1111122,1111122' 
ENP,ioos.station.NOAA.NDBC:WRBF1:1,2017-05-03T19:00:00Z,25.0720,-80.7350,1.0,2.6,80.0,-9999.0,'1111122,1111122,1111122' 
ENP,ioos.station.NOAA.NDBC:WRBF1:1,2017-05-03T20:00:00Z,25.0720,-80.7350,1.0,3.1,80.0,-9999.0,'1111122,1111122,1111122' 
ENP,ioos.station.NOAA.NDBC:WRBF1:1,2017-05-03T21:00:00Z,25.0720,-80.7350,1.0,3.6,80.0,-9999.0,'1111122,1111122,1111122' 
ENP,ioos.station.NOAA.NDBC:WRBF1:1,2017-05-04T00:00:00Z,25.0720,-80.7350,1.0,4.1,70.0,-9999.0,'1111122,1111122,1111122' 
ENP,ioos.station.NOAA.NDBC:WRBF1:1,2017-05-04T03:00:00Z,25.0720,-80.7350,1.0,5.7,60.0,-9999.0,'1111122,1111122,1111122' 
ENP,ioos.station.NOAA.NDBC:WRBF1:1,2017-05-04T06:00:00Z,25.0720,-80.7350,1.0,5.1,80.0,-9999.0,'1111122,1111122,1111122' 
ENP,ioos.station.NOAA.NDBC:WRBF1:1,2017-05-04T07:00:00Z,25.0720,-80.7350,1.0,4.1,80.0,-9999.0,'1111122,1111122,1111122' 
ENP,ioos.station.NOAA.NDBC:WRBF1:1,2017-05-04T08:00:00Z,25.0720,-80.7350,1.0,3.6,80.0,-9999.0,'1111122,1111122,1111122' 
ENP,ioos.station.NOAA.NDBC:WRBF1:1,2017-05-04T10:00:00Z,25.0720,-80.7350,1.0,3.1,80.0,-9999.0,'1111122,1111122,1111122' 
ENP,ioos.station.NOAA.NDBC:WRBF1:1,2017-05-04T11:00:00Z,25.0720,-80.7350,1.0,2.6,80.0,-9999.0,'1111122,1111122,1111122' 
ENP,ioos.station.NOAA.NDBC:WRBF1:1,2017-05-04T12:00:00Z,25.0720,-80.7350,1.0,1.5,80.0,-9999.0,'1111122,1111122,1111122' 
ENP,ioos.station.NOAA.NDBC:WRBF1:1,2017-05-04T13:00:00Z,25.0720,-80.7350,1.0,1.0,80.0,-9999.0,'1111122,1111122,1111122' 
ENP,ioos.station.NOAA.NDBC:WRBF1:1,2017-05-04T15:00:00Z,25.0720,-80.7350,1.0,0.5,100.0,-9999.0,'1111122,1111122,1111122' 
ENP,ioos.station.NOAA.NDBC:WRBF1:1,2017-05-04T16:00:00Z,25.0720,-80.7350,1.0,1.5,140.0,-9999.0,'1111122,1111122,1111122' 
ENP,ioos.station.NOAA.NDBC:WRBF1:1,2017-05-04T17:00:00Z,25.0720,-80.7350,1.0,1.5,150.0,-9999.0,'1111122,1111122,1111122' 
ENP,ioos.station.NOAA.NDBC:WRBF1:1,2017-05-04T18:00:00Z,25.0720,-80.7350,1.0,0.5,150.0,-9999.0,'1111122,1111122,1111122' 
ENP,ioos.station.NOAA.NDBC:WRBF1:1,2017-05-04T19:00:00Z,25.0720,-80.7350,1.0,1.0,210.0,-9999.0,'1111122,1111122,1111122' 
ENP,ioos.station.NOAA.NDBC:WRBF1:1,2017-05-04T20:00:00Z,25.0720,-80.7350,1.0,1.5,200.0,-9999.0,'1111122,1111122,1111122' 
ENP,ioos.station.NOAA.NDBC:WRBF1:1,2017-05-04T21:00:00Z,25.0720,-80.7350,1.0,2.6,220.0,-9999.0,'1111122,1111122,1111122' 
ENP,ioos.station.NOAA.NDBC:WRBF1:1,2017-05-04T22:00:00Z,25.0720,-80.7350,1.0,3.1,200.0,-9999.0,'1111122,1111122,1111122' 
ENP,ioos.station.NOAA.NDBC:WRBF1:1,2017-05-04T23:00:00Z,25.0720,-80.7350,1.0,4.1,210.0,-9999.0,'1111122,1111122,1111122' 
ENP,ioos.station.NOAA.NDBC:WRBF1:1,2017-05-05T00:00:00Z,25.0720,-80.7350,1.0,3.6,220.0,-9999.0,'1111122,1111122,1111122' 
ENP,ioos.station.NOAA.NDBC:WRBF1:1,2017-05-05T03:00:00Z,25.0720,-80.7350,1.0,2.1,190.0,-9999.0,'1111122,1111122,1111122' 
ENP,ioos.station.NOAA.NDBC:WRBF1:1,2017-05-05T06:00:00Z,25.0720,-80.7350,1.0,3.1,160.0,-9999.0,'1111122,1111122,1111122' 
ENP,ioos.station.NOAA.NDBC:WRBF1:1,2017-05-05T07:00:00Z,25.0720,-80.7350,1.0,3.6,160.0,-9999.0,'1111122,1111122,1111122' 
ENP,ioos.station.NOAA.NDBC:WRBF1:1,2017-05-05T08:00:00Z,25.0720,-80.7350,1.0,3.6,160.0,-9999.0,'1111122,1111122,1111122' 
ENP,ioos.station.NOAA.NDBC:WRBF1:1,2017-05-05T10:00:00Z,25.0720,-80.7350,1.0,5.7,170.0,-9999.0,'1111122,1111122,1111122' 
ENP,ioos.station.NOAA.NDBC:WRBF1:1,2017-05-05T11:00:00Z,25.0720,-80.7350,1.0,5.7,180.0,-9999.0,'1111122,1111122,1111122' 
ENP,ioos.station.NOAA.NDBC:WRBF1:1,2017-05-05T12:00:00Z,25.0720,-80.7350,1.0,5.7,180.0,-9999.0,'1111122,1111122,1111122' 
ENP,ioos.station.NOAA.NDBC:WRBF1:1,2017-05-05T13:00:00Z,25.0720,-80.7350,1.0,2.6,190.0,-9999.0,'1111122,1111122,1111122' 
ENP,ioos.station.NOAA.NDBC:WRBF1:1,2017-05-05T14:00:00Z,25.0720,-80.7350,1.0,4.6,200.0,-9999.0,'1111122,1111122,1111122' 
ENP,ioos.station.NOAA.NDBC:WRBF1:1,2017-05-05T15:00:00Z,25.0720,-80.7350,1.0,8.8,200.0,-9999.0,'1111122,1111122,1111122' 
ENP,ioos.station.NOAA.NDBC:WRBF1:1,2017-05-05T16:00:00Z,25.0720,-80.7350,1.0,8.2,210.0,-9999.0,'1111122,1111122,1111122' 
ENP,ioos.station.NOAA.NDBC:WRBF1:1,2017-05-05T17:00:00Z,25.0720,-80.7350,1.0,8.2,260.0,-9999.0,'1111122,1111122,1111122' 
ENP,ioos.station.NOAA.NDBC:WRBF1:1,2017-05-05T18:00:00Z,25.0720,-80.7350,1.0,7.2,220.0,-9999.0,'1111122,1111122,1111122' 
ENP,ioos.station.NOAA.NDBC:WRBF1:1,2017-05-05T19:00:00Z,25.0720,-80.7350,1.0,5.7,210.0,-9999.0,'1111122,1111122,1111122' 
ENP,ioos.station.NOAA.NDBC:WRBF1:1,2017-05-05T20:00:00Z,25.0720,-80.7350,1.0,4.1,210.0,-9999.0,'1111122,1111122,1111122' 
ENP,ioos.station.NOAA.NDBC:WRBF1:1,2017-05-05T21:00:00Z,25.0720,-80.7350,1.0,3.6,230.0,-9999.0,'1111122,1111122,1111122' 
ENP,ioos.station.NOAA.NDBC:WRBF1:1,2017-05-05T22:00:00Z,25.0720,-80.7350,1.0,4.1,240.0,-9999.0,'1111122,1111122,1111122' 
ENP,ioos.station.NOAA.NDBC:WRBF1:1,2017-05-05T23:00:00Z,25.0720,-80.7350,1.0,5.1,250.0,-9999.0,'1111122,1111122,1111122' 
ENP,ioos.station.NOAA.NDBC:WRBF1:1,2017-05-06T00:00:00Z,25.0720,-80.7350,1.0,7.7,270.0,-9999.0,'1111122,1111122,1111122' 
ENP,ioos.station.NOAA.NDBC:WRBF1:1,2017-05-06T03:00:00Z,25.0720,-80.7350,1.0,7.7,280.0,-9999.0,'1111122,1111122,1111122' 
ENP,ioos.station.NOAA.NDBC:WRBF1:1,2017-05-06T06:00:00Z,25.0720,-80.7350,1.0,7.2,270.0,-9999.0,'1111122,1111122,1111122' 
ENP,ioos.station.NOAA.NDBC:WRBF1:1,2017-05-06T07:00:00Z,25.0720,-80.7350,1.0,8.2,270.0,-9999.0,'1111122,1111122,1111122' 
ENP,ioos.station.NOAA.NDBC:WRBF1:1,2017-05-06T08:00:00Z,25.0720,-80.7350,1.0,8.2,270.0,-9999.0,'1111122,1111122,1111122' 
ENP,ioos.station.NOAA.NDBC:WRBF1:1,2017-05-06T10:00:00Z,25.0720,-80.7350,1.0,8.2,280.0,-9999.0,'1111122,1111122,1111122' 
ENP,ioos.station.NOAA.NDBC:WRBF1:1,2017-05-06T11:00:00Z,25.0720,-80.7350,1.0,5.7,320.0,-9999.0,'1111122,1111122,1111122' 
ENP,ioos.station.NOAA.NDBC:WRBF1:1,2017-05-06T12:00:00Z,25.0720,-80.7350,1.0,9.3,330.0,-9999.0,'1111122,1111122,1111122' 
ENP,ioos.station.NOAA.NDBC:WRBF1:1,2017-05-06T13:00:00Z,25.0720,-80.7350,1.0,8.8,340.0,-9999.0,'1111122,1111122,1111122' 
ENP,ioos.station.NOAA.NDBC:WRBF1:1,2017-05-06T14:00:00Z,25.0720,-80.7350,1.0,7.2,340.0,-9999.0,'1111122,1111122,1111122' 
ENP,ioos.station.NOAA.NDBC:WRBF1:1,2017-05-06T15:00:00Z,25.0720,-80.7350,1.0,6.2,330.0,-9999.0,'1111122,1111122,1111122' 
ENP,ioos.station.NOAA.NDBC:WRBF1:1,2017-05-06T16:00:00Z,25.0720,-80.7350,1.0,6.7,330.0,-9999.0,'1111122,1111122,1111122' 
ENP,ioos.station.NOAA.NDBC:WRBF1:1,2017-05-06T17:00:00Z,25.0720,-80.7350,1.0,2.1,330.0,-9999.0,'1111122,1111122,1111122' 
ENP,ioos.station.NOAA.NDBC:WRBF1:1,2017-05-06T19:00:00Z,25.0720,-80.7350,1.0,6.2,280.0,-9999.0,'1111122,1111122,1111122' 
ENP,ioos.station.NOAA.NDBC:WRBF1:1,2017-05-06T20:00:00Z,25.0720,-80.7350,1.0,3.1,290.0,-9999.0,'1111122,1111122,1111122' 
ENP,ioos.station.NOAA.NDBC:WRBF1:1,2017-05-06T21:00:00Z,25.0720,-80.7350,1.0,3.6,260.0,-9999.0,'1111122,1111122,1111122' 
ENP,ioos.station.NOAA.NDBC:WRBF1:1,2017-05-06T22:00:00Z,25.0720,-80.7350,1.0,4.6,290.0,-9999.0,'1111122,1111122,1111122' 
ENP,ioos.station.NOAA.NDBC:WRBF1:1,2017-05-06T23:00:00Z,25.0720,-80.7350,1.0,6.7,290.0,-9999.0,'1111122,1111122,1111122' 
ENP,ioos.station.NOAA.NDBC:WRBF1:1,2017-05-07T00:00:00Z,25.0720,-80.7350,1.0,7.2,280.0,-9999.0,'1111122,1111122,1111122' 
ENP,ioos.station.NOAA.NDBC:WRBF1:1,2017-05-07T03:00:00Z,25.0720,-80.7350,1.0,6.7,280.0,-9999.0,'1111122,1111122,1111122' 
ENP,ioos.station.NOAA.NDBC:WRBF1:1,2017-05-07T06:00:00Z,25.0720,-80.7350,1.0,4.1,300.0,-9999.0,'1111122,1111122,1111122' 
ENP,ioos.station.NOAA.NDBC:WRBF1:1,2017-05-07T07:00:00Z,25.0720,-80.7350,1.0,3.6,310.0,-9999.0,'1111122,1111122,1111122' 
ENP,ioos.station.NOAA.NDBC:WRBF1:1,2017-05-07T08:00:00Z,25.0720,-80.7350,1.0,4.1,340.0,-9999.0,'1111122,1111122,1111122' 
ENP,ioos.station.NOAA.NDBC:WRBF1:1,2017-05-07T10:00:00Z,25.0720,-80.7350,1.0,6.7,350.0,-9999.0,'1111122,1111122,1111122' 
ENP,ioos.station.NOAA.NDBC:WRBF1:1,2017-05-07T11:00:00Z,25.0720,-80.7350,1.0,6.7,360.0,-9999.0,'1111122,1111122,1111122' 
ENP,ioos.station.NOAA.NDBC:WRBF1:1,2017-05-07T12:00:00Z,25.0720,-80.7350,1.0,5.1,360.0,-9999.0,'1111122,1111122,1111122' 
ENP,ioos.station.NOAA.NDBC:WRBF1:1,2017-05-07T13:00:00Z,25.0720,-80.7350,1.0,3.1,360.0,-9999.0,'1111122,1111122,1111122' 
ENP,ioos.station.NOAA.NDBC:WRBF1:1,2017-05-07T14:00:00Z,25.0720,-80.7350,1.0,4.6,350.0,-9999.0,'1111122,1111122,1111122' 
ENP,ioos.station.NOAA.NDBC:WRBF1:1,2017-05-07T15:00:00Z,25.0720,-80.7350,1.0,4.6,340.0,-9999.0,'1111122,1111122,1111122' 
ENP,ioos.station.NOAA.NDBC:WRBF1:1,2017-05-07T16:00:00Z,25.0720,-80.7350,1.0,2.6,320.0,-9999.0,'1111122,1111122,1111122' 
ENP,ioos.station.NOAA.NDBC:WRBF1:1,2017-05-07T17:00:00Z,25.0720,-80.7350,1.0,1.5,270.0,-9999.0,'1111122,1111122,1111122' 
ENP,ioos.station.NOAA.NDBC:WRBF1:1,2017-05-07T18:00:00Z,25.0720,-80.7350,1.0,2.6,210.0,-9999.0,'1111122,1111122,1111122' 
ENP,ioos.station.NOAA.NDBC:WRBF1:1,2017-05-07T19:00:00Z,25.0720,-80.7350,1.0,1.0,220.0,-9999.0,'1111122,1111122,1111122' 
ENP,ioos.station.NOAA.NDBC:WRBF1:1,2017-05-07T20:00:00Z,25.0720,-80.7350,1.0,3.1,220.0,-9999.0,'1111122,1111122,1111122' 
ENP,ioos.station.NOAA.NDBC:WRBF1:1,2017-05-07T21:00:00Z,25.0720,-80.7350,1.0,4.6,230.0,-9999.0,'1111122,1111122,1111122' 
ENP,ioos.station.NOAA.NDBC:WRBF1:1,2017-05-07T22:00:00Z,25.0720,-80.7350,1.0,5.7,230.0,-9999.0,'1111122,1111122,1111122' 
ENP,ioos.station.NOAA.NDBC:WRBF1:1,2017-05-07T23:00:00Z,25.0720,-80.7350,1.0,3.1,230.0,-9999.0,'1111122,1111122,1111122' 
ENP,ioos.station.NOAA.NDBC:WRBF1:1,2017-05-08T00:00:00Z,25.0720,-80.7350,1.0,7.2,250.0,-9999.0,'1111122,1111122,1111122' 
ENP,ioos.station.NOAA.NDBC:WRBF1:1,2017-05-08T06:00:00Z,25.0720,-80.7350,1.0,3.1,310.0,-9999.0,'1111122,1111122,1111122' 
ENP,ioos.station.NOAA.NDBC:WRBF1:1,2017-05-08T07:00:00Z,25.0720,-80.7350,1.0,3.1,310.0,-9999.0,'1111122,1111122,1111122' 
ENP,ioos.station.NOAA.NDBC:WRBF1:1,2017-05-08T08:00:00Z,25.0720,-80.7350,1.0,3.1,310.0,-9999.0,'1111122,1111122,1111122' 
ENP,ioos.station.NOAA.NDBC:WRBF1:1,2017-05-08T10:00:00Z,25.0720,-80.7350,1.0,3.1,320.0,-9999.0,'1111122,1111122,1111122' 
ENP,ioos.station.NOAA.NDBC:WRBF1:1,2017-05-08T11:00:00Z,25.0720,-80.7350,1.0,3.1,320.0,-9999.0,'1111122,1111122,1111122' 
ENP,ioos.station.NOAA.NDBC:WRBF1:1,2017-05-08T12:00:00Z,25.0720,-80.7350,1.0,3.6,340.0,-9999.0,'1111122,1111122,1111122' 
ENP,ioos.station.NOAA.NDBC:WRBF1:1,2017-05-08T13:00:00Z,25.0720,-80.7350,1.0,4.1,340.0,-9999.0,'1111122,1111122,1111122' 
ENP,ioos.station.NOAA.NDBC:WRBF1:1,2017-05-08T14:00:00Z,25.0720,-80.7350,1.0,3.6,350.0,-9999.0,'1111122,1111122,1111122' 
ENP,ioos.station.NOAA.NDBC:WRBF1:1,2017-05-08T15:00:00Z,25.0720,-80.7350,1.0,1.0,340.0,-9999.0,'1111122,1111122,1111122' 
ENP,ioos.station.NOAA.NDBC:WRBF1:1,2017-05-08T16:00:00Z,25.0720,-80.7350,1.0,1.0,340.0,-9999.0,'1111122,1111122,1111122' 
ENP,ioos.station.NOAA.NDBC:WRBF1:1,2017-05-08T17:00:00Z,25.0720,-80.7350,1.0,1.0,20.0,-9999.0,'1111122,1111122,1111122' 
ENP,ioos.station.NOAA.NDBC:WRBF1:1,2017-05-08T18:00:00Z,25.0720,-80.7350,1.0,0.5,80.0,-9999.0,'1111122,1111122,1111122' 
ENP,ioos.station.NOAA.NDBC:WRBF1:1,2017-05-08T19:00:00Z,25.0720,-80.7350,1.0,1.0,100.0,-9999.0,'1111122,1111122,1111122' 
ENP,ioos.station.NOAA.NDBC:WRBF1:1,2017-05-08T20:00:00Z,25.0720,-80.7350,1.0,1.5,80.0,-9999.0,'1111122,1111122,1111122' 
ENP,ioos.station.NOAA.NDBC:WRBF1:1,2017-05-08T21:00:00Z,25.0720,-80.7350,1.0,1.5,60.0,-9999.0,'1111122,1111122,1111122' 
ENP,ioos.station.NOAA.NDBC:WRBF1:1,2017-05-08T22:00:00Z,25.0720,-80.7350,1.0,2.1,80.0,-9999.0,'1111122,1111122,1111122' 
ENP,ioos.station.NOAA.NDBC:WRBF1:1,2017-05-08T23:00:00Z,25.0720,-80.7350,1.0,0.5,80.0,-9999.0,'1111122,1111122,1111122' 
ENP,ioos.station.NOAA.NDBC:WRBF1:1,2017-05-09T00:00:00Z,25.0720,-80.7350,1.0,1.5,80.0,-9999.0,'1111122,1111122,1111122' 
ENP,ioos.station.NOAA.NDBC:WRBF1:1,2017-05-09T03:00:00Z,25.0720,-80.7350,1.0,1.5,60.0,-9999.0,'1111122,1111122,1111122' 
ENP,ioos.station.NOAA.NDBC:WRBF1:1,2017-05-09T06:00:00Z,25.0720,-80.7350,1.0,2.6,360.0,-9999.0,'1111122,1111122,1111122' 
ENP,ioos.station.NOAA.NDBC:WRBF1:1,2017-05-09T07:00:00Z,25.0720,-80.7350,1.0,2.6,350.0,-9999.0,'1111122,1111122,1111122' 
ENP,ioos.station.NOAA.NDBC:WRBF1:1,2017-05-09T08:00:00Z,25.0720,-80.7350,1.0,2.1,340.0,-9999.0,'1111122,1111122,1111122' 
ENP,ioos.station.NOAA.NDBC:WRBF1:1,2017-05-09T10:00:00Z,25.0720,-80.7350,1.0,2.6,330.0,-9999.0,'1111122,1111122,1111122' 
ENP,ioos.station.NOAA.NDBC:WRBF1:1,2017-05-09T11:00:00Z,25.0720,-80.7350,1.0,3.1,330.0,-9999.0,'1111122,1111122,1111122' 
ENP,ioos.station.NOAA.NDBC:WRBF1:1,2017-05-09T12:00:00Z,25.0720,-80.7350,1.0,3.1,340.0,-9999.0,'1111122,1111122,1111122' 
ENP,ioos.station.NOAA.NDBC:WRBF1:1,2017-05-09T13:00:00Z,25.0720,-80.7350,1.0,3.6,340.0,-9999.0,'1111122,1111122,1111122' 
ENP,ioos.station.NOAA.NDBC:WRBF1:1,2017-05-09T14:00:00Z,25.0720,-80.7350,1.0,1.5,340.0,-9999.0,'1111122,1111122,1111122' 
ENP,ioos.station.NOAA.NDBC:WRBF1:1,2017-05-09T15:00:00Z,25.0720,-80.7350,1.0,1.5,340.0,-9999.0,'1111122,1111122,1111122' 
ENP,ioos.station.NOAA.NDBC:WRBF1:1,2017-05-09T17:00:00Z,25.0720,-80.7350,1.0,2.6,60.0,-9999.0,'1111122,1111122,1111122' 
ENP,ioos.station.NOAA.NDBC:WRBF1:1,2017-05-09T18:00:00Z,25.0720,-80.7350,1.0,2.1,80.0,-9999.0,'1111122,1111122,1111122' 
ENP,ioos.station.NOAA.NDBC:WRBF1:1,2017-05-09T19:00:00Z,25.0720,-80.7350,1.0,1.5,90.0,-9999.0,'1111122,1111122,1111122' 
ENP,ioos.station.NOAA.NDBC:WRBF1:1,2017-05-09T20:00:00Z,25.0720,-80.7350,1.0,1.5,80.0,-9999.0,'1111122,1111122,1111122' 
ENP,ioos.station.NOAA.NDBC:WRBF1:1,2017-05-09T21:00:00Z,25.0720,-80.7350,1.0,2.6,80.0,-9999.0,'1111122,1111122,1111122' 
ENP,ioos.station.NOAA.NDBC:WRBF1:1,2017-05-09T22:00:00Z,25.0720,-80.7350,1.0,2.6,80.0,-9999.0,'1111122,1111122,1111122' 
ENP,ioos.station.NOAA.NDBC:WRBF1:1,2017-05-09T23:00:00Z,25.0720,-80.7350,1.0,1.5,80.0,-9999.0,'1111122,1111122,1111122' 
ENP,ioos.station.NOAA.NDBC:WRBF1:1,2017-05-10T00:00:00Z,25.0720,-80.7350,1.0,2.1,100.0,-9999.0,'1111122,1111122,1111122' 
ENP,ioos.station.NOAA.NDBC:WRBF1:1,2017-05-10T03:00:00Z,25.0720,-80.7350,1.0,2.6,80.0,-9999.0,'1111122,1111122,1111122' 
ENP,ioos.station.NOAA.NDBC:WRBF1:1,2017-05-10T06:00:00Z,25.0720,-80.7350,1.0,2.1,90.0,-9999.0,'1111122,1111122,1111122' 
ENP,ioos.station.NOAA.NDBC:WRBF1:1,2017-05-10T07:00:00Z,25.0720,-80.7350,1.0,1.5,80.0,-9999.0,'1111122,1111122,1111122' 
ENP,ioos.station.NOAA.NDBC:WRBF1:1,2017-05-10T08:00:00Z,25.0720,-80.7350,1.0,1.5,80.0,-9999.0,'1111122,1111122,1111122' 
ENP,ioos.station.NOAA.NDBC:WRBF1:1,2017-05-10T10:00:00Z,25.0720,-80.7350,1.0,1.5,60.0,-9999.0,'1111122,1111122,1111122' 
ENP,ioos.station.NOAA.NDBC:WRBF1:1,2017-05-10T11:00:00Z,25.0720,-80.7350,1.0,3.1,10.0,-9999.0,'1111122,1111122,1111122' 
ENP,ioos.station.NOAA.NDBC:WRBF1:1,2017-05-10T12:00:00Z,25.0720,-80.7350,1.0,2.6,360.0,-9999.0,'1111122,1111122,1111122' 
ENP,ioos.station.NOAA.NDBC:WRBF1:1,2017-05-10T14:00:00Z,25.0720,-80.7350,1.0,2.1,30.0,-9999.0,'1111122,1111122,1111122' 
ENP,ioos.station.NOAA.NDBC:WRBF1:1,2017-05-10T15:00:00Z,25.0720,-80.7350,1.0,1.0,40.0,-9999.0,'1111122,1111122,1111122' 
ENP,ioos.station.NOAA.NDBC:WRBF1:1,2017-05-10T16:00:00Z,25.0720,-80.7350,1.0,1.5,50.0,-9999.0,'1111122,1111122,1111122' 
ENP,ioos.station.NOAA.NDBC:WRBF1:1,2017-05-10T17:00:00Z,25.0720,-80.7350,1.0,1.0,60.0,-9999.0,'1111122,1111122,1111122' 
ENP,ioos.station.NOAA.NDBC:WRBF1:1,2017-05-10T18:00:00Z,25.0720,-80.7350,1.0,1.0,50.0,-9999.0,'1111122,1111122,1111122' 
ENP,ioos.station.NOAA.NDBC:WRBF1:1,2017-05-10T19:00:00Z,25.0720,-80.7350,1.0,1.5,90.0,-9999.0,'1111122,1111122,1111122' 
ENP,ioos.station.NOAA.NDBC:WRBF1:1,2017-05-10T20:00:00Z,25.0720,-80.7350,1.0,1.0,100.0,-9999.0,'1111122,1111122,1111122' 
ENP,ioos.station.NOAA.NDBC:WRBF1:1,2017-05-10T21:00:00Z,25.0720,-80.7350,1.0,1.5,90.0,-9999.0,'1111122,1111122,1111122' 
ENP,ioos.station.NOAA.NDBC:WRBF1:1,2017-05-10T22:00:00Z,25.0720,-80.7350,1.0,2.1,90.0,-9999.0,'1111122,1111122,1111122' 
ENP,ioos.station.NOAA.NDBC:WRBF1:1,2017-05-10T23:00:00Z,25.0720,-80.7350,1.0,1.0,80.0,-9999.0,'1111122,1111122,1111122' 
ENP,ioos.station.NOAA.NDBC:WRBF1:1,2017-05-11T00:00:00Z,25.0720,-80.7350,1.0,2.1,90.0,-9999.0,'1111122,1111122,1111122' 
ENP,ioos.station.NOAA.NDBC:WRBF1:1,2017-05-11T03:00:00Z,25.0720,-80.7350,1.0,1.5,100.0,-9999.0,'1111122,1111122,1111122' 
ENP,ioos.station.NOAA.NDBC:WRBF1:1,2017-05-11T06:00:00Z,25.0720,-80.7350,1.0,1.0,90.0,-9999.0,'1111122,1111122,1111122' 
ENP,ioos.station.NOAA.NDBC:WRBF1:1,2017-05-11T07:00:00Z,25.0720,-80.7350,1.0,1.0,80.0,-9999.0,'1111122,1111122,1111122' 
ENP,ioos.station.NOAA.NDBC:WRBF1:1,2017-05-11T08:00:00Z,25.0720,-80.7350,1.0,1.0,100.0,-9999.0,'1111122,1111122,1111122' 
ENP,ioos.station.NOAA.NDBC:WRBF1:1,2017-05-11T10:00:00Z,25.0720,-80.7350,1.0,1.5,40.0,-9999.0,'1111122,1111122,1111122' 
ENP,ioos.station.NOAA.NDBC:WRBF1:1,2017-05-11T11:00:00Z,25.0720,-80.7350,1.0,3.1,10.0,-9999.0,'1111122,1111122,1111122' 
ENP,ioos.station.NOAA.NDBC:WRBF1:1,2017-05-11T13:00:00Z,25.0720,-80.7350,1.0,3.1,30.0,-9999.0,'1111122,1111122,1111122' 
ENP,ioos.station.NOAA.NDBC:WRBF1:1,2017-05-11T14:00:00Z,25.0720,-80.7350,1.0,2.6,50.0,-9999.0,'1111122,1111122,1111122' 
ENP,ioos.station.NOAA.NDBC:WRBF1:1,2017-05-11T15:00:00Z,25.0720,-80.7350,1.0,2.1,60.0,-9999.0,'1111122,1111122,1111122' 
ENP,ioos.station.NOAA.NDBC:WRBF1:1,2017-05-11T16:00:00Z,25.0720,-80.7350,1.0,2.6,60.0,-9999.0,'1111122,1111122,1111122' 
ENP,ioos.station.NOAA.NDBC:WRBF1:1,2017-05-11T17:00:00Z,25.0720,-80.7350,1.0,2.6,80.0,-9999.0,'1111122,1111122,1111122' 
ENP,ioos.station.NOAA.NDBC:WRBF1:1,2017-05-11T18:00:00Z,25.0720,-80.7350,1.0,2.1,110.0,-9999.0,'1111122,1111122,1111122' 
ENP,ioos.station.NOAA.NDBC:WRBF1:1,2017-05-11T19:00:00Z,25.0720,-80.7350,1.0,1.5,140.0,-9999.0,'1111122,1111122,1111122' 
ENP,ioos.station.NOAA.NDBC:WRBF1:1,2017-05-11T20:00:00Z,25.0720,-80.7350,1.0,0.5,150.0,-9999.0,'1111122,1111122,1111122' 
ENP,ioos.station.NOAA.NDBC:WRBF1:1,2017-05-11T21:00:00Z,25.0720,-80.7350,1.0,1.0,150.0,-9999.0,'1111122,1111122,1111122' 
ENP,ioos.station.NOAA.NDBC:WRBF1:1,2017-05-11T22:00:00Z,25.0720,-80.7350,1.0,2.1,160.0,-9999.0,'1111122,1111122,1111122' 
ENP,ioos.station.NOAA.NDBC:WRBF1:1,2017-05-11T23:00:00Z,25.0720,-80.7350,1.0,2.6,180.0,-9999.0,'1111122,1111122,1111122' 
ENP,ioos.station.NOAA.NDBC:WRBF1:1,2017-05-12T00:00:00Z,25.0720,-80.7350,1.0,2.6,180.0,-9999.0,'1111122,1111122,1111122' 